Regional Weather Roundup
Issued by NWS

Home | Current Version | Previous Version | Graphics & Text | Print | Product List | Glossary Off
Versions: 1 2 3 4 5 6 7 8 9 10 11 12 13 14 15 16 17 18 19 20 21 22 23 24 25 26 27

000
ASUS43 KDMX 191107
RWRIA

WEATHER ROUNDUP FOR IOWA
NATIONAL WEATHER SERVICE DES MOINES IA
600 AM CDT SAT APR 19 2014

NOTE: "FAIR" INDICATES FEW OR NO CLOUDS BELOW 12,000 FEET WITH NO
SIGNIFICANT WEATHER AND/OR OBSTRUCTIONS TO VISIBILITY.

* - THESE STATIONS ARE NOT NWS STATIONS...THUS NOT UNDER NWS
QUALITY CONTROL.  THEY ALSO DO NOT REPORT WEATHER SUCH
AS PRECIPITATION OR FOG.

IAZ001>003-012>014-020>022-031>034-043>046-191200-
   NORTHWEST IOWA

CITY           SKY/WX    TMP DP  RH WIND       PRES   REMARKS
CARROLL *      CLOUDY    46  39  76 SE10      30.09S
CHEROKEE *     PTCLDY    48  41  76 S6        30.03R
DENISON *      MOCLDY    52  41  66 S17       30.04S
LE MARS *      CLEAR     54  41  62 S15G21    30.00R
ORANGE CITY *  CLEAR     50  39  66 SE6       30.01S
SHELDON *      MOCLDY    50  41  71 SE18      30.00F
SIOUX CITY     MOCLDY    53  41  63 S15G21    29.99S
SPENCER        PTCLDY    48  39  71 SE13      30.07R
STORM LAKE *   CLEAR     46  41  81 SE16      30.05S
$$

IAZ055>058-069>071-079>083-090>094-191200-
   SOUTHWEST IOWA

CITY           SKY/WX    TMP DP  RH WIND       PRES   REMARKS
ATLANTIC *     MOCLDY    52  39  62 S10       30.08S
AUDUBON *      CLEAR     50  39  66 S8        30.09S
CLARINDA *     CLEAR     52  41  66 S9        30.11F
COUNCIL BLFS * MOCLDY    52  43  71 S12G17    30.06R
CRESTON *      CLEAR     46  39  76 S10       30.12S
HARLAN  *      CLEAR     52  41  66 S13       30.10S
LAMONI         CLEAR     49  37  63 S8        30.14F
RED OAK *      CLEAR     52  41  66 S13       30.08S
SHENANDOAH *   CLEAR     54  41  62 SE16G23   30.09R
$$

IAZ047>049-059>061-072>074-084-191200-
   CENTRAL IOWA

CITY           SKY/WX    TMP DP  RH WIND       PRES   REMARKS
AMES           CLEAR     44  31  60 SE9       30.15S
ANKENY *       CLEAR     46  32  57 SE5       30.16S
CHARITON *     PTCLDY    48  36  61 SE10      30.16S
DES MOINES     PTCLDY    51  33  50 SE9       30.16S
GRINNELL*      PTCLDY    41  37  87 E14       30.21R
KNOXVILLE *    CLEAR     46  30  53 SE9       30.18R
MARSHALLTOWN   PTCLDY    42  37  82 SE14      30.19R
NEWTON *       CLEAR     45  34  65 SE15G23   30.19S
PELLA *        PTCLDY    45  34  65 SE12      30.21R
PERRY *          N/A     46  34  61 SE9       30.12F
$$

IAZ004>006-015-016-023>025-035-036-191200-
   NORTH CENTRAL IOWA

CITY           SKY/WX    TMP DP  RH WIND       PRES   REMARKS
ALGONA *       CLEAR     46  32  57 SE15G24   30.12R
CLARION *      CLEAR     43  32  65 SE20G28   30.13S
ESTHERVILLE    MOCLDY    43  35  73 SE16      30.08R
FORT DODGE *   CLEAR     46  32  57 SE9       30.12R
MASON CITY     PTCLDY    40  35  83 SE17      30.19R WCI  31
FOREST CITY *  CLEAR     43  36  75 SE16G23   30.16R
IOWA FALLS *     N/A     41  36  81 SE15      30.18F
$$

IAZ007>011-017>019-026>030-037>042-050>054-066-191200-
   NORTHEAST IOWA

CITY           SKY/WX    TMP DP  RH WIND       PRES   REMARKS
CEDAR RAPIDS   MOCLDY    37  31  78 SE12      30.25S WCI  29
CHARLES CITY * CLEAR     37  32  81 SE20      30.23R WCI  27
CLINTON *      PTCLDY    34  27  75 E8        30.34S WCI  27
DECORAH *      CLOUDY    36  27  69 SE13G21   30.26R WCI  27
DUBUQUE        PTCLDY    35  25  66 E9        30.30S WCI  28
MONTICELLO *   CLEAR     37  28  70 SE12      30.28S WCI  30
OELWEIN *      CLEAR    N/A N/A N/A SE18G24   30.26R
WATERLOO       PTCLDY    39  29  67 SE20      30.23R WCI  29
$$

IAZ064-065-067-068-078-191200-
   EAST CENTRAL IOWA

CITY           SKY/WX    TMP DP  RH WIND       PRES   REMARKS
DAVENPORT      MOCLDY    36  28  73 E9        30.31S WCI  29
IOWA CITY      CLOUDY    39  31  72 E8        30.28S WCI  33
MT. PLEASANT * MOCLDY    43  34  70 SE12      30.26R
MUSCATINE *    CLEAR     41  28  60 SE9       30.29S
QUAD CITIES    PTCLDY    34  29  82 E5        30.30S WCI  30
$$

IAZ062-063-075>077-085>089-095>099-191200-
   SOUTHEAST IOWA

CITY           SKY/WX    TMP DP  RH WIND       PRES   REMARKS
BURLINGTON     PTCLDY    40  33  76 SE9       30.27S WCI  34
FAIRFIELD *    CLEAR     43  36  75 SE12      30.24R
FORT MADISON * CLEAR     43  36  75 SE9G16    30.27S
KEOKUK *       CLEAR     41  36  81 E9        30.26R
OSKALOOSA *      N/A     43  36  75 E10       30.22R
CENTERVILLE *  CLEAR     45  34  65 SE7       30.20S
OTTUMWA        MOCLDY    42  35  76 SE13      30.21R
WASHINGTON *   CLEAR     39  34  81 SE12      30.26S WCI  32
$$

ABBREVIATIONS USED IN REMARKS
   TC - TEMPERATURES IN CELSIUS
  WCI - WIND CHILL INDEX
   HX - HEAT INDEX
  VSB - VISIBILITY
$$




USA.gov is the U.S. government's official web portal to all federal, state and local government web resources and services.